Change the Weather History Date:

Monday, February 11, 2013

  Actual Average (KGAF) Record (KGAF)
Temperature  
Mean Temperature 16 °F -  
Max Temperature 23 °F 16 °F 47 °F (1977)
Min Temperature 10 °F -1 °F -30 °F (1955)
Degree Days  
Heating Degree Days 48    
Moisture  
Dew Point 15 °F    
Average Humidity 90    
Maximum Humidity 100    
Minimum Humidity 74    
Precipitation  
Precipitation 0.01 in - - ()
Sea Level Pressure  
Sea Level Pressure 29.90 in    
Wind  
Wind Speed 15 mph (WNW)    
Max Wind Speed 22 mph    
Max Gust Speed 31 mph    
Visibility 10 miles    
Events Snow    
Averages and records for this station are not official NWS values.
T = Trace of Precipitation, MM = Missing Value Source: NWS Daily Summary

Daily Weather History Graph

Daily Weather History Graph

Search for Another Location

Airport or City:

Trip Planner

Search our weather history database for the weather conditions in past years. The results will help you decide how hot, cold, wet, or windy it might be!

Date:

Astronomy

Feb. 11, 2013 Rise Set
Actual Time 7:46 AM CST 5:46 PM CST
Civil Twilight 7:13 AM CST 6:19 PM CST
Nautical Twilight 6:36 AM CST 6:56 PM CST
Astronomical Twilight 5:59 AM CST 7:33 PM CST
Moon 7:58 AM CST (2/11) 7:59 PM CST (2/11)
Length of Visible Light 11h 05m
Length of Day
10h 00m
Waxing Crescent, 3% of the Moon is Illuminated
Feb 11
Waxing Crescent
Feb 17
First Quarter
Feb 25
Full
Mar 4
Last Quarter
Mar 11
New

Hourly Weather History & Observations

Time (CST) Temp. Windchill Dew Point Humidity Pressure Visibility Wind Dir Wind Speed Gust Speed Precip Events Conditions
12:15 AM 21.2 °F 5.6 °F 21.2 °F 100% 29.84 in 8.0 mi NNW 20.7 mph 29.9 mph N/A Snow Light Snow
12:35 AM 19.4 °F 3.6 °F 19.4 °F 100% 29.85 in 7.0 mi NNW 19.6 mph 29.9 mph N/A   Overcast
12:55 AM 19.4 °F 2.8 °F 19.4 °F 100% 29.84 in 8.0 mi NNW 21.9 mph 31.1 mph N/A   Overcast
1:15 AM 17.6 °F 1.3 °F 17.6 °F 100% 29.85 in 10.0 mi NNW 19.6 mph 28.8 mph N/A   Overcast
1:35 AM 17.6 °F 1.3 °F 17.6 °F 100% 29.85 in 10.0 mi NNW 19.6 mph 28.8 mph N/A   Overcast
1:55 AM 17.6 °F 0.9 °F 17.6 °F 100% 29.86 in 10.0 mi NNW 20.7 mph 29.9 mph N/A   Overcast
2:15 AM 15.8 °F -1.5 °F 15.8 °F 100% 29.87 in 10.0 mi NNW 20.7 mph 29.9 mph N/A   Overcast
2:35 AM 15.8 °F -0.6 °F 15.8 °F 100% 29.87 in 10.0 mi NNW 18.4 mph 25.3 mph N/A   Overcast
2:55 AM 15.8 °F -1.1 °F 15.8 °F 100% 29.88 in 10.0 mi NNW 19.6 mph 28.8 mph N/A Snow Light Snow
3:15 AM 15.8 °F -0.6 °F 15.8 °F 100% 29.88 in 10.0 mi NNW 18.4 mph 25.3 mph N/A   Overcast
3:35 AM 14.0 °F -2.5 °F 14.0 °F 100% 29.89 in 10.0 mi NNW 17.3 mph 21.9 mph N/A   Overcast
3:55 AM 15.8 °F 0.3 °F 15.8 °F 100% 29.89 in 10.0 mi NNW 16.1 mph 25.3 mph N/A   Overcast
4:15 AM 15.8 °F 1.4 °F 15.8 °F 100% 29.89 in 10.0 mi NNW 13.8 mph - N/A   Overcast
4:35 AM 14.0 °F -3.4 °F 14.0 °F 100% 29.90 in 10.0 mi NNW 19.6 mph 26.5 mph N/A Snow Light Snow
4:55 AM 14.0 °F -3.4 °F 14.0 °F 100% 29.90 in 10.0 mi NNW 19.6 mph 25.3 mph N/A Snow Light Snow
5:15 AM 14.0 °F -2.5 °F 14.0 °F 100% 29.90 in 10.0 mi NNW 17.3 mph 25.3 mph N/A Snow Light Snow
5:55 AM 14.0 °F -2.5 °F 12.2 °F 93% 29.92 in 7.0 mi NNW 17.3 mph 27.6 mph N/A Snow Light Snow
6:15 AM 12.2 °F -3.7 °F 12.2 °F 100% 29.92 in 5.0 mi NNW 15.0 mph 19.6 mph N/A Snow Light Snow
6:35 AM 12.2 °F -4.3 °F 12.2 °F 100% 29.92 in 5.0 mi NW 16.1 mph 24.2 mph 0.01 in Snow Light Snow
6:55 AM 10.4 °F -5.4 °F 10.4 °F 100% 29.93 in 9.0 mi NW 13.8 mph 25.3 mph 0.01 in Snow Light Snow
7:15 AM 10.4 °F -6.0 °F 10.4 °F 100% 29.94 in 10.0 mi NNW 15.0 mph 21.9 mph N/A Snow Light Snow
7:35 AM 10.4 °F -4.8 °F 10.4 °F 100% 29.94 in 10.0 mi NNW 12.7 mph 19.6 mph N/A   Overcast
7:55 AM 10.4 °F -4.8 °F 10.4 °F 100% 29.94 in 10.0 mi NNW 12.7 mph - N/A   Overcast
8:15 AM 10.4 °F -3.3 °F 10.4 °F 100% 29.94 in 10.0 mi NW 10.4 mph - N/A   Overcast
8:35 AM 12.2 °F -1.8 °F 10.4 °F 92% 29.95 in 10.0 mi NNW 11.5 mph - N/A   Overcast
8:55 AM 12.2 °F -1.8 °F 10.4 °F 92% 29.95 in 10.0 mi NNW 11.5 mph 17.3 mph N/A   Overcast
9:15 AM 14.0 °F 2.0 °F 10.4 °F 86% 29.96 in 10.0 mi NNW 9.2 mph 16.1 mph N/A   Overcast
9:35 AM 14.0 °F 2.0 °F 10.4 °F 86% 29.96 in 10.0 mi NNW 9.2 mph - N/A   Overcast
9:55 AM 14.0 °F 2.0 °F 12.2 °F 93% 29.96 in 10.0 mi NNW 9.2 mph - N/A   Overcast
10:15 AM 14.0 °F 2.0 °F 12.2 °F 93% 29.96 in 10.0 mi NNW 9.2 mph - N/A   Overcast
10:35 AM 15.8 °F 3.4 °F 14.0 °F 93% 29.96 in 10.0 mi NNW 10.4 mph - N/A   Overcast
10:55 AM 15.8 °F 2.7 °F 14.0 °F 93% 29.96 in 10.0 mi NNW 11.5 mph 16.1 mph N/A   Overcast
11:15 AM 17.6 °F 5.7 °F 15.8 °F 93% 29.97 in 10.0 mi NNW 10.4 mph - N/A   Overcast
11:35 AM 17.6 °F 6.4 °F 15.8 °F 93% 29.97 in 10.0 mi NNW 9.2 mph - N/A   Overcast
11:55 AM 19.4 °F 8.6 °F 15.8 °F 86% 29.96 in 10.0 mi NNW 9.2 mph - N/A   Overcast
12:15 PM 19.4 °F 8.6 °F 15.8 °F 86% 29.96 in 10.0 mi NNW 9.2 mph - N/A   Overcast
12:35 PM 19.4 °F 9.5 °F 17.6 °F 93% 29.95 in 10.0 mi NNW 8.1 mph - N/A   Overcast
12:55 PM 21.2 °F 11.7 °F 17.6 °F 86% 29.94 in 10.0 mi NW 8.1 mph - N/A   Overcast
1:15 PM 21.2 °F 10.1 °F 17.6 °F 86% 29.94 in 10.0 mi NW 10.4 mph - N/A   Overcast
1:35 PM 21.2 °F 12.6 °F 15.8 °F 80% 29.94 in 10.0 mi NW 6.9 mph - N/A   Overcast
1:55 PM 23.0 °F 14.7 °F 17.6 °F 80% 29.94 in 10.0 mi NNW 6.9 mph - N/A   Overcast
2:15 PM 23.0 °F 17.0 °F 17.6 °F 80% 29.93 in 10.0 mi NW 4.6 mph - N/A   Overcast
2:35 PM 23.0 °F 13.9 °F 15.8 °F 74% 29.92 in 10.0 mi WSW 8.1 mph - N/A   Overcast
2:55 PM 23.0 °F 14.7 °F 15.8 °F 74% 29.92 in 10.0 mi West 6.9 mph - N/A   Overcast
3:15 PM 23.0 °F 12.4 °F 15.8 °F 74% 29.92 in 10.0 mi West 10.4 mph - N/A   Overcast
3:35 PM 23.0 °F 13.1 °F 15.8 °F 74% 29.92 in 10.0 mi West 9.2 mph - N/A   Overcast
3:55 PM 21.2 °F 11.7 °F 15.8 °F 80% 29.92 in 10.0 mi West 8.1 mph - N/A   Overcast
4:55 PM 21.2 °F 8.3 °F 15.8 °F 80% 29.91 in 10.0 mi West 13.8 mph 18.4 mph N/A   Overcast
5:15 PM 19.4 °F 7.9 °F 14.0 °F 80% 29.92 in 10.0 mi West 10.4 mph 18.4 mph N/A   Mostly Cloudy
5:35 PM 17.6 °F 5.7 °F 14.0 °F 86% 29.91 in 10.0 mi West 10.4 mph 17.3 mph N/A   Scattered Clouds
5:55 PM 15.8 °F 6.1 °F 12.2 °F 86% 29.91 in 10.0 mi West 6.9 mph - N/A   Scattered Clouds
6:15 PM 15.8 °F 7.2 °F 12.2 °F 86% 29.90 in - WSW 5.8 mph - N/A   Unknown
6:35 PM 15.8 °F 7.2 °F 10.4 °F 79% 29.89 in - WSW 5.8 mph - N/A   Mostly Cloudy
6:55 PM 15.8 °F 6.1 °F 10.4 °F 79% 29.88 in - WSW 6.9 mph - N/A   Scattered Clouds
7:15 PM 15.8 °F 6.1 °F 10.4 °F 79% 29.87 in - SW 6.9 mph - N/A   Clear
7:35 PM 15.8 °F 3.4 °F 12.2 °F 86% 29.87 in - WSW 10.4 mph - N/A   Unknown
7:55 PM 15.8 °F 8.6 °F 12.2 °F 86% 29.87 in - WSW 4.6 mph - N/A   Unknown
8:15 PM 17.6 °F 7.3 °F 14.0 °F 86% 29.86 in - WSW 8.1 mph - N/A   Overcast
8:35 PM 17.6 °F 6.4 °F 15.8 °F 93% 29.85 in - WSW 9.2 mph - N/A   Overcast
8:55 PM 19.4 °F 6.6 °F 15.8 °F 86% 29.84 in - WSW 12.7 mph 17.3 mph N/A   Overcast
9:15 PM 19.4 °F 9.5 °F 15.8 °F 86% 29.83 in - WSW 8.1 mph - N/A   Overcast
9:35 PM 19.4 °F 7.9 °F 15.8 °F 86% 29.83 in - WSW 10.4 mph - N/A   Mostly Cloudy
9:55 PM 19.4 °F 9.5 °F 17.6 °F 93% 29.82 in - WSW 8.1 mph - N/A   Unknown
10:15 PM 19.4 °F 7.9 °F 17.6 °F 93% 29.81 in - WSW 10.4 mph 16.1 mph N/A   Unknown
10:35 PM 19.4 °F 11.5 °F 17.6 °F 93% 29.80 in - SW 5.8 mph - N/A   Unknown
10:55 PM 21.2 °F 14.9 °F 17.6 °F 86% 29.79 in - SW 4.6 mph - N/A   Overcast
11:15 PM 23.0 °F 10.6 °F 17.6 °F 80% 29.77 in - SW 13.8 mph 19.6 mph N/A   Overcast
11:35 PM 23.0 °F 11.1 °F 17.6 °F 80% 29.76 in 10.0 mi SW 12.7 mph - N/A   Overcast
11:55 PM 23.0 °F 13.1 °F 19.4 °F 86% 29.76 in - SSW 9.2 mph 17.3 mph N/A   Unknown